Location: Newark
(49.1000°N, 0.4667°W)
Time: 10:23:45
(UTC+00:00)

BEESAT 3 - Pass Details

Date: 07 July 2020
Orbit: 482 x 522 km, 64.9° (Epoch: 10 August)

Event Time Altitude Azimuth Distance (km) Brightness Sun altitude
Rises 02:47:39 0° 325° (NW) 2,659 ? -9.9°
Reaches altitude 10° 02:50:55 10° 354° (N) 1,763 ? -9.6°
Maximum altitude 02:52:50 13° 23° (NNE) 1,570 ? -9.4°
Drops below altitude 10° 02:54:44 10° 52° (NE) 1,753 ? -9.2°
Sets 02:57:58 0° 81° (E) 2,629 ? -8.9°
